Погода в Руоколахти

Финляндия     61°17′32″N   28°48′44″E
темп.,
°C
ветер,
м/с
пор.,
м/с
влажн.,
%
обл.,
%
осадки,
мм/ч
давл.,
гПа
погр.,
м
5 марта, пт
пт523:00−8ссз489356 0.0 1006224
02:00−9сз489467 0.1 1008239
05:00−10сз489594 0.0 1008211
08:00−11сз489479 0.0 1010204
11:00−8сз469080 0.0 1011303
14:00−6сз478780 0.0 1013423
17:00−7сз358437 0.0 1014114
20:00−9сз359119 0.0 101590
6 марта, сб
сб623:00−10зсз33920 0.0 101636
02:00−10зсз33940 0.0 101643
05:00−11зюз34940 0.0 101465
08:00−9ююз499042 0.0 1012228
11:00−4ююз71389100 0.1 1007646
14:00−2ююз91595100 1.5 1000920
17:00−2юз81595100 1.9 994808
20:00−1зюз91796100 2.7 990838
7 марта, вс
вс723:00−6зсз71381100 1.1 989556
02:00−8з6127884 1.3 990847
05:00−9з7127799 0.3 989633
08:00−12зсз378781 0.3 988184
11:00−9с24827 0.0 990296
14:00−7ссз477530 0.0 993534
17:00−9ссз7139169 0.1 996700
20:00−9с7138884 0.3 999744
8 марта, пн
пн823:00−11с71388100 0.1 1003671
02:00−13с71487100 0.1 1007622
05:00−15с71489100 0.0 1009497
08:00−17с7138896 0.0 1012448
11:00−15с6118555 0.0 1014435
14:00−12с587729 0.0 1015501
17:00−13ссз37840 0.0 1016218
20:00−15ссв229020 0.0 101622
9 марта, вт
вт923:00−15юв2289100 0.0 101637
02:00−15юв4688100 0.0 1014186
05:00−15вюв5794100 0.3 1013244
08:00−14в61093100 0.9 1014369
11:00−12вюв6990100 0.3 1015546
14:00−12в588691 0.3 1017497
17:00−14в479179 0.0 1017262
20:00−17в489487 0.0 1018221